Wind_Speed
21 22 25 27 28 28 29 30 30 30 30 29 27 26 26 25 23 21 21 21 21 21 21 21 22 23 22 21 19 17 15 14 14 13 13 13 13 14 15 15 16 16 17 18 20 20 21 21 21 23 24 24 24 24 23 23 25 26 27 27 27 28 29 30 32 30 26 27 29 28 26 28 26 24 26 27 27 28 29 29 30 31 31 31 31
23 24 26 27 28 29 31 32 33 33 32 31 29 28 27 26 24 22 22 22 22 21 20 20 22 23 21 20 19 17 15 15 15 14 14 14 15 16 16 16 17 17 18 19 21 22 22 22 22 23 24 25 24 24 23 24 25 26 27 28 28 29 30 31 32 32 29 27 28 28 26 27 26 24 25 27 27 27 28 28 29 31 32 32 32
26 27 28 28 29 30 33 35 35 35 35 33 31 31 29 26 25 24 23 22 21 21 20 21 23 21 20 19 18 16 16 16 16 15 15 16 16 16 17 17 17 17 18 19 21 22 23 23 22 22 24 24 24 24 25 25 26 27 28 29 29 29 30 32 33 33 32 29 28 29 28 27 26 25 25 27 29 29 29 29 30 31 32 33 34
27 29 30 30 31 32 35 37 38 39 39 36 34 34 31 27 25 25 24 22 21 20 19 19 20 18 18 18 17 16 16 15 16 16 16 16 16 17 17 18 18 19 19 20 21 22 23 23 22 22 23 23 23 24 26 27 28 29 29 30 30 30 30 31 33 34 35 33 30 30 30 28 27 26 26 28 30 30 30 31 32 34 34 34 35
28 30 32 33 34 35 37 39 42 42 41 38 35 33 31 28 27 27 25 23 21 19 17 17 18 18 18 18 17 16 16 15 15 16 16 16 16 17 18 18 20 21 21 22 22 23 23 23 23 23 23 23 23 24 26 27 29 29 30 31 31 31 31 31 33 34 35 36 34 32 31 30 29 28 27 29 31 31 31 32 35 36 35 35 35
27 29 33 35 36 38 39 42 46 43 40 39 35 30 29 28 28 28 26 23 21 19 18 18 19 19 18 18 17 16 15 14 15 16 16 16 15 15 17 18 21 23 24 24 24 24 25 24 24 24 25 25 25 26 26 27 28 29 29 31 31 32 32 31 33 34 35 35 35 33 32 32 32 29 27 29 33 33 34 35 36 36 36 37 37
26 27 31 33 37 41 44 47 49 46 44 44 37 29 29 29 29 30 27 24 24 21 19 20 22 20 19 18 16 15 14 14 15 16 16 16 15 15 17 19 22 24 26 26 26 26 26 26 25 26 27 28 27 27 27 27 27 27 28 30 30 31 32 31 32 34 35 34 34 33 33 33 33 31 29 30 32 33 36 39 40 38 38 39 40
24 25 26 30 36 44 47 47 48 49 49 46 36 30 30 33 32 32 29 28 27 25 22 25 25 19 18 17 14 14 14 14 15 16 16 16 15 16 18 21 23 24 26 27 27 27 28 27 27 28 28 29 29 29 29 28 27 27 28 29 30 31 31 32 32 33 33 34 33 32 33 33 32 32 31 31 32 33 35 40 42 42 41 42 43
23 23 24 27 34 40 41 43 47 49 49 47 39 33 33 35 35 34 33 31 29 27 27 27 22 16 16 15 13 14 15 14 16 17 17 18 18 18 20 22 24 26 26 27 27 28 28 28 28 29 29 30 31 31 31 30 29 29 28 29 30 31 31 32 32 32 32 33 32 32 33 32 31 32 32 31 32 34 36 39 42 43 44 46 46
22 23 25 27 31 34 35 41 46 47 47 47 41 34 34 36 38 38 36 35 33 29 26 21 16 14 14 13 12 13 14 15 17 19 20 21 21 22 23 24 26 28 28 27 27 27 28 29 29 29 30 31 32 32 32 32 31 31 30 31 32 32 32 32 32 32 32 32 32 32 32 32 30 31 32 32 32 35 37 39 42 44 46 49 51
23 25 28 29 31 32 32 38 45 47 47 45 39 32 32 36 39 40 39 37 34 27 19 14 14 15 13 11 12 13 14 16 19 21 22 24 25 26 26 27 28 29 30 29 27 27 29 29 29 30 31 32 33 33 32 32 31 32 32 33 35 34 32 31 31 31 31 32 32 32 32 32 31 31 32 32 34 36 38 40 42 45 47 51 54
26 28 30 31 31 32 31 36 45 47 43 40 36 29 31 36 39 40 40 36 29 21 15 13 13 13 12 11 12 13 15 18 20 23 24 25 28 29 30 30 30 30 31 31 29 29 30 30 31 31 31 33 34 33 33 32 31 31 33 35 36 33 31 31 31 31 31 32 33 32 31 32 32 31 31 33 35 37 38 40 42 45 48 51 54
29 30 32 32 31 31 31 37 46 44 36 34 32 26 30 36 38 39 38 32 25 18 14 13 12 11 11 12 13 15 17 19 22 24 26 28 31 32 33 33 33 32 32 32 31 31 31 32 32 32 32 33 34 34 34 32 31 32 34 36 34 31 29 29 30 30 31 33 34 33 31 31 33 31 30 33 36 37 38 40 42 45 48 51 53
31 32 33 33 31 31 31 37 44 39 30 29 28 24 29 35 38 41 36 26 20 17 14 12 12 11 12 13 16 17 19 21 23 25 28 31 33 34 35 36 35 34 33 33 32 32 33 34 34 33 33 33 34 34 34 34 33 33 35 34 31 28 28 28 29 30 31 33 34 33 31 31 33 32 30 32 35 37 38 40 43 46 49 52 55
28 29 31 32 30 30 31 36 39 33 26 26 26 26 30 34 35 36 29 19 17 17 14 12 11 11 12 15 18 19 20 22 25 27 30 32 33 35 37 37 36 35 35 34 33 33 33 35 35 35 35 34 34 34 34 35 35 34 33 31 28 26 26 26 28 29 31 32 33 33 32 30 31 32 31 32 34 36 38 41 43 46 50 55 57
24 26 28 29 29 29 31 34 34 28 24 26 26 25 26 25 23 24 21 18 17 16 13 12 11 11 14 17 19 20 21 24 27 29 31 33 35 37 37 37 36 35 35 35 34 33 34 36 37 37 36 35 34 34 34 35 34 32 29 27 25 24 24 25 27 29 30 31 31 32 32 31 31 32 32 33 34 36 38 41 42 44 49 55 58
25 26 27 27 28 28 29 30 29 25 23 24 20 17 17 17 18 19 19 18 16 13 12 13 14 15 17 19 21 22 23 25 28 30 33 35 37 36 35 36 36 36 36 35 34 34 35 37 37 37 37 36 34 33 34 33 30 27 25 24 24 23 23 25 27 28 29 29 30 31 31 31 31 32 32 33 34 36 40 42 43 44 49 54 58
27 27 27 27 27 25 25 27 24 20 20 19 15 16 19 20 19 19 18 16 15 14 15 16 18 19 20 21 24 26 26 27 30 32 35 38 37 35 35 35 36 35 35 34 34 35 36 37 37 37 37 36 34 33 31 29 26 24 24 24 24 24 24 25 27 27 28 28 28 29 30 31 32 33 32 33 34 36 40 43 44 46 50 53 57
26 26 26 27 26 22 22 23 18 14 16 17 18 20 21 21 20 19 18 17 17 17 19 20 20 20 22 24 28 30 29 30 32 34 36 38 38 36 35 35 35 35 35 34 35 35 35 36 36 37 36 35 33 31 28 24 23 23 24 25 25 25 25 26 26 26 25 26 27 28 29 30 32 33 32 33 34 35 38 41 43 46 49 51 55
25 25 26 27 25 20 18 16 12 15 17 18 20 22 22 22 20 20 21 21 21 21 21 21 20 21 23 27 30 31 31 31 33 35 37 37 37 36 35 35 34 35 35 35 34 34 34 35 35 36 35 33 30 28 25 23 23 24 25 25 25 25 24 24 24 25 25 26 27 28 29 30 31 31 32 32 33 34 35 38 40 43 47 49 54
25 26 27 26 21 17 14 13 16 19 20 20 22 23 22 20 20 21 22 22 22 21 20 20 21 23 25 28 30 32 32 32 33 36 37 35 34 34 34 34 35 35 34 34 33 33 33 33 33 33 32 30 28 25 23 23 24 24 24 25 24 24 24 23 24 25 26 27 29 29 30 30 30 30 31 31 32 33 34 36 37 40 43 47 53
25 26 26 22 17 13 15 19 20 22 25 26 25 24 22 19 19 20 21 21 19 19 20 22 24 25 27 29 31 31 32 33 34 36 35 33 33 34 34 34 34 34 33 32 32 32 31 31 31 30 30 28 26 24 24 24 24 24 24 24 24 24 24 24 25 26 27 29 30 30 30 31 31 31 31 32 32 33 34 34 35 37 39 43 51
24 25 24 19 15 17 21 22 22 24 27 28 27 25 22 20 20 20 19 18 18 19 22 24 25 26 27 29 31 32 33 34 35 36 35 34 34 34 34 33 33 33 32 32 31 30 29 29 29 29 28 26 25 24 24 24 24 24 24 24 24 25 25 26 27 28 28 30 31 31 32 33 34 34 33 33 33 33 34 34 34 36 38 42 49
22 23 22 17 18 22 23 23 24 26 29 29 26 23 21 20 19 18 18 18 18 19 22 24 25 27 28 30 32 33 33 34 35 35 34 34 33 32 32 32 32 32 31 30 29 28 28 28 28 28 26 25 24 24 24 24 24 24 25 25 25 25 26 27 28 29 30 31 32 33 34 34 35 36 35 34 34 33 34 34 33 34 37 43 49
20 21 20 18 20 22 22 22 25 28 29 28 24 22 20 19 17 16 17 17 17 18 21 24 25 27 28 30 31 32 32 33 34 34 33 32 31 31 31 31 31 31 30 29 28 27 27 28 28 27 25 24 24 24 24 24 24 25 25 25 25 25 26 27 29 29 30 31 32 34 35 35 36 36 35 34 34 34 34 34 32 33 36 43 48
18 19 19 18 21 22 22 23 26 28 28 25 23 22 21 19 17 16 17 17 17 20 22 24 25 26 27 28 30 31 31 32 32 31 30 30 30 30 30 30 30 30 28 28 28 27 27 28 27 25 24 23 23 23 24 24 24 25 25 25 25 26 27 28 29 29 30 31 32 34 35 35 35 34 34 34 33 33 33 33 32 32 35 43 49
15 16 17 20 21 20 21 24 27 28 27 25 23 22 21 19 17 16 17 18 19 21 22 23 23 24 26 27 28 29 31 31 30 29 29 29 29 29 29 30 30 29 28 27 28 28 28 28 26 24 22 22 22 23 23 24 25 25 25 25 25 26 27 28 29 29 29 31 33 34 34 34 34 33 33 33 32 31 31 31 32 32 35 42 49
13 14 17 20 20 19 22 26 27 28 28 25 21 20 19 18 17 17 17 19 20 21 20 21 22 23 25 26 28 29 30 30 29 28 28 28 28 28 29 29 29 28 27 27 28 28 28 27 25 23 22 22 22 23 24 25 25 26 26 26 27 27 28 29 30 30 30 31 33 34 33 33 33 32 32 32 31 30 29 28 29 31 34 40 48
14 16 18 21 21 21 26 28 29 29 26 21 18 16 15 16 17 18 18 19 18 18 19 19 21 23 25 26 27 28 28 27 27 27 28 28 28 28 28 28 27 27 27 27 28 27 26 25 23 22 21 22 23 24 25 25 26 26 27 28 28 29 29 29 30 30 31 32 33 33 33 32 32 31 31 30 29 28 26 26 27 29 31 37 44
16 17 18 20 23 26 29 29 28 26 21 18 16 15 15 16 17 18 18 18 18 18 18 19 21 23 24 26 26 27 27 27 27 28 28 28 28 27 27 26 26 26 27 27 27 25 24 23 22 21 20 21 22 24 25 26 27 28 29 30 30 29 28 28 29 30 31 31 32 32 32 32 31 30 30 29 27 25 24 23 25 27 29 34 42
17 18 19 21 25 28 28 26 25 23 21 21 18 16 15 17 18 18 18 18 18 18 19 19 20 22 24 26 27 27 28 28 28 28 28 28 27 26 26 26 26 26 26 26 25 23 22 21 20 19 20 21 23 24 26 27 29 30 30 30 29 27 26 27 28 30 30 30 31 31 31 30 30 29 28 28 26 24 23 21 22 24 26 31 38
18 20 20 23 26 27 26 25 26 27 25 21 18 16 17 19 20 20 20 19 19 19 19 19 20 22 24 26 28 28 29 29 28 28 27 26 26 25 25 25 25 25 25 25 23 21 20 20 20 20 21 22 24 26 27 27 27 28 27 27 27 26 25 26 28 29 29 29 30 30 29 28 28 27 27 27 25 24 22 20 20 22 24 27 33
19 21 23 26 28 28 27 27 28 26 21 18 18 18 20 21 21 20 20 19 19 19 20 20 22 24 25 27 28 29 29 29 27 26 25 25 25 25 25 24 24 23 24 23 21 20 19 19 20 21 22 23 24 26 26 26 25 25 26 26 26 25 25 26 27 28 28 28 28 28 27 26 26 25 25 25 24 24 22 20 19 21 22 24 28
21 24 26 29 29 27 26 26 25 22 19 19 19 20 21 21 20 19 19 19 20 20 21 23 24 25 26 27 29 29 29 28 26 26 25 25 25 25 24 24 23 23 23 22 20 19 19 20 21 21 22 23 23 24 25 25 25 25 25 25 26 25 25 25 26 27 27 27 26 25 24 24 23 23 22 22 22 22 22 20 18 19 20 22 26
19 23 25 27 27 26 25 24 23 22 21 20 21 21 21 20 18 18 19 20 21 22 23 24 25 26 27 28 29 29 28 27 26 26 26 26 26 25 25 23 22 22 22 20 19 19 19 20 21 21 22 22 22 23 24 25 25 25 26 25 25 24 24 24 24 25 24 23 22 21 21 21 21 21 21 22 21 21 21 19 18 17 18 21 23
17 19 21 23 24 24 24 25 26 25 23 23 23 22 20 18 17 18 19 20 22 23 24 24 25 27 28 29 29 29 28 27 27 26 26 26 26 26 26 24 22 21 21 20 19 20 20 21 22 22 22 22 22 24 25 25 26 26 26 25 23 23 23 22 22 21 20 19 18 18 18 18 19 19 20 21 22 21 21 20 18 16 16 17 20
20 21 21 22 23 23 24 26 27 27 26 25 23 20 18 17 17 18 19 22 25 26 25 26 27 29 29 29 29 29 28 27 27 26 26 26 27 27 25 23 21 20 21 21 21 21 22 22 23 23 23 23 23 24 25 26 26 26 25 23 22 21 21 19 18 17 16 16 16 16 16 16 17 18 19 20 21 21 21 20 18 15 15 15 17
25 26 26 26 25 25 26 27 28 28 27 25 21 19 18 17 18 21 25 28 28 27 26 27 29 30 30 30 29 28 28 27 26 26 26 26 26 25 23 21 20 20 21 22 22 23 23 24 24 24 24 23 24 24 25 25 26 25 23 22 20 19 17 15 14 13 13 13 14 14 15 15 16 17 18 19 20 20 21 20 18 15 14 14 14
30 31 29 27 25 26 28 29 28 28 26 23 21 21 22 23 26 29 30 29 28 27 27 28 30 30 30 30 29 28 27 26 25 24 24 24 24 24 22 21 20 21 22 23 23 24 25 26 26 25 24 24 24 24 24 24 24 23 21 20 18 17 15 13 11 11 12 12 13 13 14 15 16 17 17 18 19 19 20 20 19 17 14 13 13
33 32 28 25 26 29 31 30 28 26 26 26 26 27 28 29 31 31 29 27 27 27 28 29 31 31 31 30 28 27 25 24 23 23 23 23 23 24 23 23 22 22 23 23 24 25 26 26 25 24 24 24 24 23 23 22 23 22 20 17 15 14 12 11 10 10 10 11 12 12 13 14 15 16 17 17 18 19 19 20 20 19 16 14 12
31 28 25 27 30 31 30 28 27 26 27 29 30 29 28 28 28 27 26 26 27 27 28 30 32 32 30 28 27 25 23 23 23 23 23 24 25 25 25 25 25 24 24 24 24 24 24 24 24 24 24 24 23 22 20 20 21 20 17 15 13 11 10 10 9 9 10 11 12 13 14 15 15 15 16 16 17 18 18 19 19 19 18 15 12
26 25 27 29 29 27 26 26 26 27 29 30 30 27 26 26 26 26 26 26 27 28 29 30 30 29 27 25 24 23 23 23 23 24 25 26 26 26 26 26 26 25 24 24 23 23 23 23 23 23 22 22 21 19 18 18 18 17 15 13 11 10 10 9 9 9 10 11 12 13 15 15 16 16 16 15 16 16 17 18 18 18 18 16 12
24 27 30 28 25 23 24 25 27 29 30 30 28 26 25 26 26 25 26 27 29 29 29 28 27 26 24 23 23 23 23 24 25 25 26 26 26 25 25 25 25 25 24 23 22 22 21 21 21 20 20 19 18 17 17 17 16 14 13 11 11 10 9 9 9 9 11 12 13 14 15 15 16 16 15 14 14 14 15 16 17 16 16 16 14
24 27 27 25 22 23 26 27 27 28 29 28 27 26 25 25 25 26 27 29 30 29 28 27 26 25 24 23 24 24 24 25 25 25 25 24 23 23 23 23 24 25 25 24 23 22 20 19 19 18 18 17 16 16 16 15 14 12 12 11 10 10 9 9 10 11 12 13 13 14 14 15 15 15 15 14 13 13 12 13 14 15 15 15 14
23 22 21 21 22 25 26 26 25 26 26 26 25 25 24 25 26 27 28 28 28 26 25 24 23 23 23 23 23 23 23 24 24 23 23 22 22 21 21 22 23 24 25 24 23 21 19 18 18 17 16 15 15 14 14 13 12 11 11 10 9 9 9 10 11 11 12 13 13 13 14 14 14 14 14 13 12 11 11 11 11 12 13 14 14
21 18 18 20 22 22 23 23 24 25 24 24 23 24 25 25 26 25 25 24 23 23 22 22 21 21 21 22 22 21 21 22 22 21 22 22 22 22 21 21 21 22 23 22 21 19 18 17 17 16 14 13 13 13 12 12 11 11 10 9 9 9 10 11 11 12 12 13 13 13 13 13 13 13 13 12 11 11 10 10 10 10 11 12 12
18 18 18 19 20 20 22 23 24 24 23 23 24 24 24 24 23 22 21 21 20 20 19 19 19 19 19 20 21 21 21 21 21 22 22 23 23 23 22 22 21 21 20 20 19 18 17 16 15 13 12 12 12 12 12 12 11 10 9 9 9 10 10 10 11 11 12 12 13 13 12 12 12 12 12 12 11 11 10 9 9 9 9 10 11
17 17 18 18 19 21 23 23 23 23 24 24 24 24 23 22 21 21 20 20 19 19 19 19 19 19 19 20 21 21 21 22 22 22 23 23 23 23 23 23 21 20 18 17 17 18 17 15 12 11 11 11 12 12 12 12 11 10 9 9 9 9 10 10 11 11 12 12 12 12 12 12 12 11 11 11 11 10 10 9 8 8 8 9 9
15 17 18 19 21 23 24 24 24 24 24 23 23 23 22 21 21 21 20 20 19 19 19 19 20 21 21 21 21 21 21 21 22 22 22 22 22 22 22 22 22 20 17 16 16 17 16 14 11 10 11 12 12 13 12 12 11 10 10 9 9 9 10 10 11 11 12 12 12 12 12 12 11 11 10 10 10 10 10 9 9 8 7 7 8
16 19 21 23 24 23 23 22 21 21 20 21 21 21 21 21 21 20 20 20 20 20 20 21 22 22 23 23 23 22 20 19 19 20 20 20 20 20 21 21 21 20 17 15 16 17 16 14 11 11 11 12 13 13 12 12 12 11 10 10 9 9 10 11 11 11 12 12 12 12 12 11 11 10 10 10 10 10 10 10 9 8 7 6 7
18 20 21 21 20 19 17 17 17 17 17 18 19 19 19 20 20 21 21 21 21 21 21 22 23 23 24 24 23 23 21 19 18 18 17 17 17 18 19 19 19 18 16 15 15 16 16 14 13 12 12 13 13 13 13 13 13 12 11 10 10 10 11 11 11 11 11 12 12 12 11 11 10 10 9 9 9 10 10 10 9 9 7 6 6
Wind_Direction
247 248 249 250 251 252 254 254 253 253 254 256 257 259 264 269 272 277 283 290 295 298 302 306 314 321 320 319 317 316 319 319 316 317 320 323 324 323 321 319 315 310 306 304 300 298 297 296 296 295 294 295 296 295 294 293 294 296 298 300 301 301 300 298 299 299 298 298 299 300 301 299 297 296 291 288 286 285 285 284 283 282 281 280 280
251 251 250 251 252 253 254 253 252 252 251 253 256 258 262 266 268 273 279 284 288 291 296 302 312 317 314 311 312 312 316 317 315 317 321 324 326 325 324 323 320 317 312 307 303 301 302 302 301 298 297 298 298 297 296 295 296 297 299 301 301 300 299 299 299 300 299 297 297 298 300 300 300 297 293 290 288 286 285 285 284 283 282 282 282
253 253 253 252 252 253 253 252 251 251 252 253 255 257 259 261 265 270 274 276 279 284 290 299 309 313 309 307 308 311 315 316 315 316 319 322 324 322 321 321 321 319 314 310 306 304 304 305 304 301 299 300 300 299 299 298 298 298 299 300 300 299 298 298 300 301 300 297 297 298 300 300 299 297 293 290 289 288 287 287 286 285 284 285 286
255 256 255 253 253 253 252 250 248 249 251 252 254 258 258 257 261 265 266 268 272 279 287 299 310 309 305 305 306 309 312 312 312 314 317 321 321 319 319 319 319 318 316 313 308 306 305 304 303 301 299 300 301 300 300 299 298 298 298 298 298 297 297 297 299 300 299 298 298 299 300 301 299 297 296 293 292 291 292 292 291 288 288 290 290
257 259 259 256 254 253 252 251 249 248 248 250 256 260 254 252 257 258 259 261 266 273 280 294 308 306 299 301 304 305 308 310 312 314 317 318 317 315 315 317 318 317 316 314 310 307 305 303 301 299 299 300 300 300 299 298 297 297 298 297 296 296 295 296 297 297 296 297 297 298 301 302 301 300 300 297 294 294 295 294 293 291 292 293 293
258 261 262 259 257 256 253 250 246 243 242 246 253 254 246 246 252 253 254 256 259 265 271 281 295 298 295 296 300 303 305 309 311 311 311 310 309 310 312 316 318 318 317 314 311 308 306 303 301 298 298 299 299 299 297 297 297 297 297 296 295 294 294 294 294 294 294 295 297 299 301 302 301 302 302 300 298 298 298 295 293 294 295 295 295
260 264 266 266 264 257 247 243 244 246 246 247 253 256 243 238 245 250 249 250 253 256 265 279 287 289 290 291 295 299 301 306 310 311 311 306 302 304 309 316 320 319 316 312 310 309 307 304 301 298 298 298 298 298 296 296 297 297 298 297 295 293 292 292 293 294 294 295 296 298 300 300 301 303 304 301 300 301 300 297 296 297 298 298 299
263 266 269 272 270 260 251 250 254 257 256 253 258 265 248 234 239 245 245 246 250 253 266 283 285 280 280 283 287 293 298 308 315 316 317 312 307 308 312 317 319 318 314 310 308 309 309 306 302 300 299 298 298 298 298 297 298 299 300 299 297 294 292 292 293 294 294 295 296 298 298 299 302 304 304 303 303 301 299 299 299 301 301 301 303
263 266 269 270 268 265 266 269 264 261 260 256 259 267 257 241 238 240 242 245 247 255 271 281 278 268 268 274 281 291 298 310 315 314 315 316 315 316 316 317 318 318 316 311 307 308 309 307 304 302 301 300 300 300 300 299 299 299 300 300 299 295 293 293 295 296 296 296 297 297 297 299 303 304 304 305 305 303 301 301 302 303 304 304 306
262 264 265 265 266 268 274 277 269 263 262 258 257 264 262 249 240 237 239 243 247 258 271 272 263 260 264 272 283 293 301 308 311 313 314 313 312 313 314 316 318 319 318 312 306 306 307 306 305 304 303 303 303 303 303 302 300 299 300 300 300 298 295 294 296 297 297 297 297 297 298 301 303 303 304 307 306 304 305 305 305 305 307 308 309
264 265 265 265 268 270 274 279 273 264 262 257 254 261 261 249 242 238 237 243 252 263 267 254 251 260 268 279 287 294 303 306 309 313 313 311 310 309 310 312 313 315 316 312 305 302 304 305 305 305 304 304 304 304 303 303 302 300 299 299 300 300 298 297 297 298 299 298 297 298 301 302 303 304 307 308 306 306 307 308 308 309 312 313 312
265 267 268 268 272 273 276 282 275 267 265 259 254 262 260 246 240 237 237 245 256 262 257 246 251 262 274 287 290 295 304 304 306 309 309 308 310 310 310 310 309 310 312 310 304 300 301 303 304 304 305 304 304 302 300 299 298 297 297 298 299 300 298 297 298 299 299 297 297 299 303 304 304 306 308 307 306 307 308 308 309 312 315 316 314
262 264 267 269 275 277 280 285 279 273 271 260 251 260 262 249 240 237 239 247 254 253 249 246 252 265 278 288 293 299 304 303 304 306 306 306 308 309 310 310 308 308 308 307 302 297 298 301 302 304 305 304 303 300 297 295 293 294 296 297 298 298 296 295 298 299 298 296 297 301 304 305 305 307 308 307 306 307 308 307 309 314 316 316 317
267 268 270 270 275 278 281 284 281 277 275 262 249 252 255 248 242 239 240 246 251 250 247 243 252 269 279 287 293 298 302 303 303 304 304 305 305 306 307 307 307 306 306 304 299 294 295 300 302 305 306 305 303 299 296 294 294 295 296 295 296 295 293 295 297 297 295 296 298 302 305 305 305 305 306 306 305 307 307 306 309 314 317 316 317
274 275 275 273 275 276 277 281 282 282 278 265 253 250 248 246 247 247 244 242 243 243 241 244 257 272 281 286 290 294 300 302 302 302 302 302 301 302 303 305 305 304 304 301 296 292 295 301 304 306 307 305 303 299 295 295 296 297 296 294 294 293 293 295 295 293 293 296 298 301 303 304 303 303 304 305 304 305 304 304 308 315 316 313 315
278 278 278 276 275 275 274 279 287 286 275 265 260 253 244 241 246 248 240 231 233 236 241 254 270 279 281 285 289 295 300 300 299 299 299 298 299 301 303 305 304 302 302 300 296 294 299 303 305 306 306 305 303 299 297 297 298 298 296 294 294 294 295 294 291 291 294 296 298 299 301 302 302 302 303 304 304 304 302 302 307 313 312 310 312
275 275 277 276 277 279 279 285 291 286 271 266 260 239 218 212 217 222 220 221 228 237 250 265 274 278 280 285 290 295 297 297 298 298 297 296 298 300 301 303 302 300 299 299 298 300 303 305 305 305 305 306 304 301 300 300 300 299 296 295 296 296 294 292 290 292 295 295 297 298 299 301 301 300 302 302 303 304 303 303 306 309 309 309 312
277 276 276 277 279 283 286 290 290 278 262 253 231 203 190 188 194 203 209 219 231 243 256 263 268 274 281 287 290 290 291 293 293 292 291 293 295 297 298 299 298 297 298 299 300 302 303 304 305 305 306 307 306 303 303 302 300 298 296 296 297 296 295 293 292 293 294 294 295 296 297 299 298 298 300 301 301 302 301 303 306 308 308 310 314
288 283 279 278 278 278 281 284 274 245 228 216 200 192 183 177 185 201 213 223 235 244 252 260 267 277 284 286 285 285 287 289 289 289 289 288 289 292 295 296 297 297 297 298 299 300 302 303 304 305 307 307 306 305 304 301 298 296 296 297 298 299 298 297 296 295 294 293 293 293 294 295 295 296 298 298 299 299 300 303 306 308 309 311 317
295 285 281 280 277 271 271 267 234 203 201 197 190 187 180 177 190 209 220 228 236 243 252 264 274 280 282 282 282 284 287 290 291 293 293 290 287 289 293 295 296 296 295 295 297 299 301 302 304 305 307 307 306 304 302 299 296 295 296 299 300 302 301 300 300 299 298 297 296 295 295 294 294 295 296 297 298 299 301 304 307 308 309 313 320
295 287 284 281 274 262 245 216 192 190 194 191 186 185 182 185 199 213 223 231 239 247 258 267 274 277 279 280 282 285 288 290 290 291 293 291 288 289 292 294 294 293 293 294 297 299 300 302 304 305 306 305 304 301 298 296 294 296 299 301 303 303 302 302 303 303 303 303 302 300 299 298 297 297 297 298 300 301 303 305 308 309 311 316 323
295 290 285 278 264 235 205 190 189 193 193 189 187 188 188 194 204 216 226 234 243 254 263 268 273 277 279 281 282 284 287 288 287 289 290 290 289 291 293 293 292 291 293 295 297 298 300 302 304 305 305 303 299 295 293 294 296 300 302 302 303 303 303 304 305 306 307 308 307 306 304 302 301 300 301 301 302 304 305 308 310 311 312 319 325
296 290 282 268 238 207 194 193 198 198 191 186 187 190 192 197 207 218 230 241 253 264 269 273 277 280 280 282 283 285 285 285 285 287 289 289 290 291 292 291 291 292 294 295 296 298 301 303 304 305 303 299 294 291 291 295 300 303 303 302 302 302 304 306 306 306 309 310 310 311 308 306 305 304 304 304 305 307 309 311 313 313 314 323 328
296 288 275 251 217 201 197 200 202 197 190 186 188 191 195 201 209 221 237 250 260 268 273 276 279 281 282 283 283 284 283 284 286 288 289 289 289 290 290 290 292 293 294 295 296 298 301 302 303 303 299 295 291 290 292 297 302 304 302 301 302 303 304 306 305 306 308 310 312 313 311 309 308 307 307 308 309 311 312 313 315 315 316 326 331
291 281 266 238 212 204 204 208 205 198 193 191 191 196 203 208 213 226 242 253 263 270 274 276 278 279 281 281 282 283 284 285 287 289 289 289 289 289 290 291 293 294 294 295 296 298 300 301 301 300 296 293 291 291 294 299 302 301 300 300 301 302 303 304 304 305 307 309 312 314 314 312 311 311 311 313 314 315 315 314 316 315 318 328 334
283 273 255 228 213 210 211 212 208 201 197 196 197 205 217 222 222 231 245 257 266 271 272 274 277 279 281 282 283 285 286 286 288 288 289 289 288 288 290 291 293 295 295 296 297 298 300 300 299 297 296 294 293 293 295 298 298 298 298 298 299 300 301 302 303 304 307 311 314 316 316 315 315 316 317 318 318 317 316 314 316 318 322 331 337
276 264 240 220 216 218 214 209 205 203 203 203 206 216 226 229 229 238 251 259 264 268 271 275 279 283 285 287 289 289 288 287 287 287 287 287 287 289 291 293 294 296 296 297 297 298 299 299 298 298 298 297 296 294 294 295 295 297 298 299 300 302 302 303 305 306 309 313 316 318 318 318 319 320 320 321 320 318 316 315 316 320 326 335 340
262 250 228 219 223 222 209 202 202 206 208 212 222 230 231 231 238 247 254 257 262 267 273 279 284 287 289 291 292 290 287 286 286 287 287 288 289 291 292 294 295 296 296 296 296 298 299 300 300 300 300 300 299 297 296 296 297 299 302 303 304 306 306 307 308 309 312 315 317 319 320 319 320 321 320 322 322 319 317 316 316 321 329 338 343
246 241 228 226 230 217 202 201 207 211 215 228 243 242 232 233 241 246 250 256 264 272 279 284 288 290 291 291 291 289 288 289 289 289 290 291 292 292 293 294 295 295 294 296 298 300 301 301 301 301 301 301 300 298 298 299 300 302 304 305 307 308 308 309 310 311 313 315 317 320 320 319 320 320 319 321 323 321 319 317 317 323 331 339 345
238 238 233 232 225 209 202 207 210 214 228 246 245 231 225 232 240 245 252 261 269 276 282 286 289 291 292 292 294 295 294 293 292 291 292 292 292 293 293 294 294 294 296 298 300 301 302 301 300 300 300 299 298 298 299 301 302 304 305 305 306 307 308 309 311 312 314 316 317 319 319 318 319 319 318 321 323 322 320 319 320 325 333 340 346
237 237 232 226 216 206 204 208 213 226 247 252 236 225 231 239 244 251 259 265 270 276 281 285 289 293 296 297 299 299 297 295 293 291 291 291 292 292 292 293 294 296 298 300 301 301 300 298 297 296 297 296 296 297 298 301 302 303 304 305 306 307 308 311 313 313 314 315 317 318 317 318 318 319 320 321 323 322 322 321 321 326 335 343 348
239 235 225 217 211 207 208 217 231 245 253 246 233 232 240 245 249 256 261 266 272 276 281 287 293 297 300 301 301 300 297 294 292 291 291 291 291 291 291 292 294 296 298 298 298 298 296 295 294 294 295 295 296 298 299 301 303 304 305 306 307 308 310 312 312 312 313 315 316 316 317 317 319 321 322 323 324 323 323 324 323 327 337 347 350
235 227 216 210 210 212 220 236 251 255 248 237 236 240 243 246 251 255 261 267 273 278 286 294 298 299 300 300 300 298 296 293 291 290 289 288 288 289 290 292 294 295 295 295 294 293 293 294 294 295 296 297 298 299 300 302 304 305 307 308 309 310 311 311 310 311 313 315 316 316 318 320 322 325 326 325 326 325 325 327 328 329 339 350 354
233 223 215 213 218 227 239 252 257 251 239 237 240 239 239 244 250 255 262 269 277 285 293 297 297 297 298 299 299 298 295 292 290 288 286 286 287 289 290 292 294 293 291 290 289 289 291 294 295 296 297 298 299 299 300 302 304 306 308 309 311 312 312 311 311 313 314 315 316 317 320 324 326 328 330 330 330 329 329 330 331 332 340 352 358
235 229 229 231 235 243 248 247 243 238 237 236 234 232 237 245 252 260 268 275 283 291 294 294 294 295 297 299 299 297 294 291 289 287 286 286 287 288 290 291 291 288 286 285 285 287 290 295 297 298 298 299 299 299 299 301 304 307 309 310 311 312 311 311 312 313 313 315 317 320 324 328 332 335 338 338 336 335 335 335 334 337 343 351 357
230 230 236 240 242 244 243 237 233 233 232 229 228 234 243 253 260 265 273 283 291 293 291 291 293 295 296 298 299 297 294 291 288 287 287 287 286 287 288 288 286 282 279 279 281 285 292 296 298 299 299 298 298 299 300 302 304 307 309 310 310 309 309 311 312 312 314 316 320 323 328 334 339 343 346 345 342 342 345 343 340 340 341 345 355
236 238 241 244 246 247 244 238 233 230 228 228 233 243 253 259 264 271 282 291 293 290 287 289 292 294 297 299 299 296 292 289 288 288 287 286 284 284 285 284 280 275 273 275 280 286 291 295 296 297 297 297 298 299 301 302 304 306 307 307 307 307 308 310 310 312 314 317 321 325 332 338 343 347 350 350 348 349 352 352 347 341 337 340 354
241 246 251 256 257 251 243 235 230 228 228 232 240 249 255 260 270 282 290 291 287 284 285 288 292 296 298 299 297 293 289 288 288 288 287 284 282 281 280 279 275 272 272 275 281 286 290 293 294 294 294 295 297 298 300 301 303 303 304 304 306 306 307 308 309 311 314 318 322 328 334 340 345 349 351 352 353 353 355 357 355 347 340 342 355
246 250 257 261 255 242 232 227 225 226 231 239 251 261 266 271 278 283 285 282 279 281 286 290 293 296 298 296 292 288 286 286 286 284 282 281 281 281 281 279 276 275 276 278 282 286 289 290 291 291 292 293 295 297 299 301 301 300 301 302 303 304 304 305 309 311 314 319 323 327 333 338 342 346 348 350 352 353 354 357 359 357 350 348 359
253 256 258 252 241 230 224 223 225 231 239 250 262 271 277 278 279 278 277 276 277 282 288 291 294 295 294 291 287 284 284 283 281 279 280 281 282 284 284 283 281 280 280 281 283 285 286 287 288 288 290 292 294 296 299 299 297 297 299 299 299 298 297 300 305 308 311 315 320 324 329 333 337 340 343 344 347 349 352 355 359 1 360 355 359
257 255 244 232 227 226 225 228 234 243 252 261 269 275 277 276 274 273 273 275 279 285 290 292 292 292 289 285 282 281 280 278 278 280 282 284 285 286 287 287 286 285 284 284 284 284 284 284 285 287 289 291 294 296 296 295 293 294 296 295 292 290 289 292 297 301 304 309 315 320 324 327 331 333 336 339 341 344 348 352 355 0 4 2 359
253 242 228 223 225 230 234 241 249 257 266 271 274 274 273 273 272 272 274 278 283 288 290 289 287 286 284 280 277 277 276 277 280 284 286 287 287 287 287 287 288 288 287 287 286 285 284 284 285 287 289 291 293 293 292 290 290 291 291 287 283 282 283 286 291 297 302 307 313 317 320 324 328 330 332 336 339 340 342 345 350 357 4 6 3
237 226 223 227 232 240 248 256 263 269 273 273 272 271 272 273 274 275 278 282 286 287 284 280 280 281 280 277 275 276 278 281 285 287 287 287 287 287 286 287 289 289 290 290 289 288 288 286 286 288 288 289 289 289 287 286 285 284 281 277 276 277 280 286 293 300 305 310 314 319 323 325 327 329 331 334 336 337 337 339 342 350 0 7 8
236 230 231 235 239 244 252 260 265 269 269 268 268 270 272 273 275 277 280 282 283 281 276 274 276 278 278 278 279 282 284 286 286 287 287 287 287 287 288 288 289 289 290 290 290 289 288 288 287 288 287 286 286 285 284 281 278 275 272 271 272 275 281 291 300 306 311 316 320 324 327 328 327 329 332 334 334 335 335 335 336 342 354 6 12
252 248 247 248 249 250 253 257 262 266 267 268 270 272 273 273 274 276 277 277 277 275 273 274 277 278 279 281 283 285 286 286 286 287 288 289 291 291 290 289 289 290 290 289 288 286 285 286 285 284 283 283 283 282 280 275 270 268 268 269 271 278 287 297 305 310 314 320 324 326 328 330 332 332 334 337 339 336 334 335 337 339 347 360 10
265 262 257 256 256 255 255 258 263 266 267 267 268 269 270 272 274 274 275 275 275 274 274 276 277 278 279 281 283 285 285 286 287 288 290 291 293 293 292 290 290 291 290 288 285 282 281 281 281 280 280 281 281 278 274 268 265 265 265 266 273 284 292 300 307 313 316 319 324 327 328 331 335 337 338 341 345 345 341 340 342 341 343 350 2
268 267 264 261 260 259 258 259 261 264 264 266 268 269 271 273 274 274 273 272 272 273 274 274 275 276 278 280 283 285 287 289 290 291 292 292 293 294 294 293 293 293 291 286 280 277 276 277 277 277 278 278 276 272 269 266 264 262 263 267 276 286 294 301 306 312 315 317 322 326 328 330 335 340 342 344 349 352 351 346 345 344 342 344 352
262 264 263 262 260 259 258 258 260 264 267 269 271 272 273 274 272 270 267 267 267 269 270 271 273 275 277 279 282 286 289 291 292 292 292 293 294 294 295 296 296 296 292 282 274 271 271 271 273 276 275 272 270 268 265 263 261 259 263 271 278 286 293 300 303 306 311 315 319 322 326 330 334 339 343 346 350 355 356 353 351 349 342 342 348
259 260 261 261 260 259 259 260 262 265 266 267 268 269 270 268 266 264 264 265 267 268 270 272 274 276 279 281 283 286 288 290 289 288 289 289 291 292 293 295 296 296 289 275 265 265 267 266 266 269 269 266 266 265 263 260 258 259 264 271 277 283 289 295 301 304 308 313 317 320 324 329 333 338 343 346 350 355 358 359 360 358 351 345 347
256 258 261 261 261 261 262 262 262 262 262 263 265 266 266 266 266 267 270 272 275 276 278 278 279 281 283 284 284 285 286 286 284 284 284 285 287 289 290 291 292 292 285 268 258 259 263 262 260 261 262 262 262 261 258 256 257 260 265 271 277 283 288 293 299 304 307 310 314 319 323 326 331 335 340 344 349 354 357 360 1 1 0 355 349
262 263 263 263 263 263 262 262 261 260 261 262 263 265 267 270 273 275 278 281 283 284 285 285 286 287 288 288 288 288 288 284 280 278 280 283 286 288 289 289 289 287 278 263 253 254 259 259 258 257 258 259 257 255 254 255 257 261 266 271 277 285 291 296 299 303 306 308 311 315 319 322 324 328 334 342 348 353 356 358 359 360 1 1 356
Height
3171 3172 3173 3173 3174 3175 3175 3175 3176 3176 3176 3177 3178 3179 3179 3179 3179 3180 3180 3179 3179 3178 3178 3178 3177 3176 3175 3174 3172 3171 3169 3168 3167 3167 3165 3164 3163 3162 3160 3159 3159 3158 3157 3156 3155 3154 3153 3152 3151 3149 3148 3147 3146 3145 3145 3143 3142 3141 3139 3138 3137 3136 3134 3132 3131 3131 3132 3131 3128 3128 3127 3125 3124 3124 3122 3121 3121 3120 3119 3119 3117 3116 3116 3115 3115
3168 3169 3169 3170 3171 3172 3172 3172 3173 3173 3174 3175 3176 3176 3176 3176 3177 3177 3177 3177 3176 3176 3175 3175 3175 3174 3173 3172 3170 3169 3168 3166 3165 3164 3163 3162 3161 3159 3158 3157 3157 3156 3155 3154 3153 3152 3151 3150 3149 3147 3145 3144 3144 3143 3142 3141 3139 3138 3137 3135 3134 3133 3131 3129 3127 3126 3127 3128 3126 3125 3124 3122 3121 3121 3119 3117 3116 3115 3115 3114 3113 3112 3111 3110 3110
3165 3165 3166 3167 3168 3169 3169 3169 3170 3170 3171 3172 3173 3173 3174 3174 3175 3175 3174 3174 3173 3172 3172 3172 3172 3171 3171 3169 3168 3167 3165 3164 3163 3162 3161 3159 3158 3157 3156 3155 3155 3154 3153 3152 3151 3150 3148 3148 3147 3145 3143 3142 3142 3140 3139 3138 3137 3135 3134 3133 3131 3130 3128 3125 3124 3122 3122 3123 3123 3121 3120 3119 3117 3117 3116 3113 3112 3110 3110 3109 3108 3107 3106 3105 3104
3161 3162 3163 3164 3165 3166 3165 3166 3166 3166 3166 3167 3168 3170 3172 3172 3172 3172 3171 3170 3169 3169 3169 3169 3169 3168 3168 3167 3166 3165 3163 3162 3161 3160 3158 3157 3156 3155 3154 3153 3152 3151 3151 3149 3148 3147 3146 3145 3144 3143 3141 3140 3139 3138 3137 3135 3134 3133 3131 3130 3128 3127 3126 3123 3121 3120 3118 3117 3118 3117 3115 3114 3114 3113 3112 3109 3107 3106 3105 3104 3102 3101 3101 3100 3099
3158 3159 3160 3161 3162 3162 3162 3162 3160 3160 3162 3163 3164 3166 3168 3169 3169 3168 3167 3166 3166 3166 3165 3165 3166 3166 3165 3164 3164 3163 3162 3160 3159 3158 3156 3155 3154 3153 3151 3150 3149 3148 3147 3146 3145 3144 3143 3143 3141 3140 3138 3138 3137 3136 3134 3133 3132 3130 3129 3127 3126 3124 3123 3121 3119 3117 3115 3113 3113 3113 3111 3110 3109 3109 3107 3104 3102 3101 3100 3099 3097 3095 3095 3094 3093
3156 3157 3158 3158 3159 3158 3158 3156 3154 3156 3160 3160 3161 3162 3163 3165 3165 3164 3164 3163 3162 3162 3162 3162 3163 3164 3163 3162 3162 3161 3160 3159 3157 3156 3155 3153 3152 3151 3149 3148 3147 3146 3145 3143 3142 3141 3140 3139 3138 3137 3136 3135 3134 3133 3132 3130 3129 3128 3126 3124 3123 3121 3119 3118 3116 3114 3112 3110 3109 3108 3108 3106 3104 3104 3103 3100 3097 3095 3094 3093 3091 3090 3089 3088 3087
3154 3155 3155 3156 3155 3153 3152 3152 3151 3153 3154 3155 3156 3157 3158 3160 3161 3160 3160 3159 3158 3158 3158 3159 3161 3162 3161 3160 3159 3159 3157 3157 3155 3154 3153 3151 3150 3148 3147 3146 3145 3144 3143 3141 3140 3139 3138 3136 3135 3134 3133 3132 3131 3130 3129 3128 3126 3125 3123 3121 3120 3118 3116 3115 3114 3111 3109 3107 3106 3104 3103 3102 3100 3099 3099 3096 3093 3091 3088 3085 3084 3085 3084 3082 3080
3151 3151 3152 3152 3151 3147 3146 3148 3147 3146 3146 3148 3151 3151 3152 3154 3155 3155 3155 3154 3154 3154 3155 3156 3157 3158 3157 3157 3157 3156 3155 3154 3153 3152 3151 3149 3147 3146 3145 3144 3143 3142 3141 3139 3138 3136 3135 3134 3132 3131 3130 3129 3128 3127 3125 3124 3123 3121 3120 3119 3116 3115 3113 3112 3110 3108 3105 3103 3102 3101 3099 3098 3097 3095 3093 3092 3089 3087 3085 3080 3077 3077 3076 3075 3074
3148 3148 3148 3148 3144 3141 3141 3142 3141 3141 3141 3143 3145 3146 3146 3148 3149 3150 3150 3150 3150 3151 3152 3153 3153 3153 3153 3154 3154 3153 3152 3151 3151 3150 3148 3147 3145 3144 3143 3141 3140 3139 3138 3137 3135 3134 3132 3131 3130 3128 3127 3126 3124 3123 3122 3120 3119 3118 3117 3116 3113 3111 3109 3108 3106 3104 3102 3100 3098 3097 3095 3094 3093 3091 3088 3087 3085 3082 3080 3077 3074 3071 3069 3067 3067
3144 3144 3143 3141 3139 3138 3139 3138 3136 3136 3136 3137 3140 3142 3142 3143 3144 3145 3146 3145 3146 3148 3150 3150 3149 3149 3150 3151 3151 3150 3149 3148 3148 3147 3145 3144 3142 3141 3140 3139 3137 3136 3135 3134 3132 3131 3130 3128 3127 3125 3124 3122 3120 3119 3117 3116 3115 3114 3113 3112 3110 3108 3106 3104 3102 3100 3098 3096 3094 3093 3092 3090 3090 3087 3084 3083 3080 3077 3074 3072 3069 3066 3063 3060 3058
3140 3139 3138 3137 3137 3136 3137 3135 3132 3131 3132 3133 3135 3137 3138 3139 3140 3140 3141 3141 3143 3146 3148 3147 3147 3148 3148 3148 3148 3147 3146 3145 3144 3143 3142 3140 3139 3138 3137 3136 3134 3133 3132 3131 3129 3128 3127 3125 3124 3122 3120 3118 3116 3115 3113 3112 3111 3110 3109 3107 3105 3104 3102 3100 3098 3096 3094 3092 3090 3090 3088 3086 3085 3083 3080 3078 3075 3072 3070 3067 3064 3060 3057 3053 3049
3135 3135 3133 3133 3134 3134 3134 3132 3127 3126 3129 3129 3130 3134 3136 3137 3137 3137 3138 3139 3142 3145 3145 3145 3145 3146 3146 3146 3146 3145 3143 3142 3141 3140 3138 3136 3135 3134 3133 3132 3131 3130 3129 3128 3126 3125 3123 3122 3120 3119 3117 3115 3113 3111 3109 3109 3108 3107 3105 3104 3102 3100 3098 3095 3093 3092 3090 3088 3086 3086 3085 3082 3080 3079 3077 3074 3070 3068 3066 3063 3059 3055 3053 3049 3044
3131 3130 3129 3129 3130 3130 3131 3128 3122 3122 3127 3128 3129 3133 3134 3134 3134 3135 3136 3138 3140 3142 3142 3142 3143 3143 3143 3143 3143 3142 3141 3140 3138 3136 3135 3133 3132 3130 3129 3129 3128 3127 3126 3125 3123 3121 3119 3118 3116 3115 3114 3111 3109 3108 3106 3105 3104 3103 3102 3100 3098 3097 3094 3092 3090 3088 3086 3084 3082 3082 3081 3078 3075 3074 3074 3070 3066 3064 3061 3058 3055 3052 3048 3044 3040
3127 3126 3125 3125 3126 3126 3126 3122 3118 3119 3124 3125 3127 3130 3131 3131 3132 3132 3133 3135 3137 3138 3139 3139 3140 3140 3140 3140 3140 3140 3139 3137 3136 3134 3132 3130 3129 3127 3126 3125 3124 3124 3123 3122 3120 3118 3116 3114 3112 3111 3110 3108 3106 3104 3102 3101 3100 3099 3098 3096 3094 3093 3091 3089 3087 3084 3082 3080 3078 3077 3077 3075 3072 3070 3070 3067 3063 3060 3057 3052 3050 3047 3043 3038 3035
3123 3123 3122 3121 3121 3121 3120 3117 3115 3117 3121 3122 3123 3125 3126 3128 3128 3129 3132 3133 3134 3135 3136 3136 3137 3137 3137 3137 3137 3137 3136 3135 3133 3131 3130 3128 3126 3125 3123 3122 3121 3120 3120 3118 3116 3114 3112 3110 3108 3107 3105 3104 3103 3100 3098 3097 3096 3095 3093 3092 3090 3089 3088 3086 3083 3081 3079 3077 3075 3073 3072 3071 3069 3067 3066 3064 3060 3057 3053 3048 3046 3043 3037 3032 3029
3119 3118 3117 3117 3116 3116 3114 3112 3113 3116 3117 3117 3118 3119 3121 3124 3126 3128 3130 3131 3132 3133 3134 3134 3134 3134 3134 3134 3133 3134 3133 3132 3130 3129 3127 3125 3124 3122 3121 3119 3118 3117 3116 3115 3113 3111 3109 3107 3104 3103 3101 3100 3099 3097 3094 3093 3091 3090 3088 3088 3087 3086 3085 3083 3080 3077 3076 3074 3072 3070 3068 3067 3065 3063 3062 3060 3057 3054 3049 3045 3043 3040 3033 3027 3023
3114 3114 3113 3112 3112 3111 3110 3109 3110 3112 3112 3112 3114 3115 3117 3120 3122 3124 3127 3128 3130 3131 3132 3132 3132 3132 3131 3130 3130 3130 3130 3129 3128 3126 3124 3122 3121 3120 3118 3116 3115 3114 3112 3111 3109 3107 3105 3103 3101 3099 3097 3096 3094 3092 3090 3088 3086 3085 3084 3083 3083 3082 3081 3079 3076 3074 3073 3070 3068 3066 3065 3063 3062 3060 3058 3056 3053 3050 3044 3040 3039 3035 3029 3022 3016
3110 3110 3109 3108 3107 3107 3106 3106 3106 3107 3107 3109 3111 3111 3113 3115 3118 3121 3124 3126 3128 3129 3129 3130 3130 3129 3128 3128 3127 3127 3127 3126 3125 3123 3121 3120 3118 3116 3115 3113 3112 3110 3108 3107 3105 3104 3102 3100 3097 3094 3092 3091 3089 3087 3085 3083 3082 3081 3080 3080 3079 3078 3077 3075 3073 3071 3069 3067 3066 3064 3062 3060 3058 3056 3055 3053 3050 3047 3042 3037 3034 3030 3024 3018 3011
3107 3106 3105 3104 3103 3102 3102 3102 3102 3103 3103 3105 3107 3108 3110 3112 3116 3119 3122 3123 3125 3126 3126 3127 3127 3126 3126 3125 3124 3124 3123 3122 3121 3119 3118 3116 3115 3113 3111 3109 3108 3106 3104 3103 3102 3100 3099 3096 3093 3090 3088 3086 3084 3083 3081 3080 3079 3078 3077 3076 3076 3075 3073 3071 3069 3068 3066 3064 3063 3061 3059 3057 3055 3052 3051 3049 3047 3044 3039 3035 3030 3025 3019 3014 3009
3103 3101 3100 3099 3098 3098 3098 3098 3099 3100 3101 3102 3104 3106 3108 3110 3114 3117 3119 3120 3121 3122 3123 3124 3124 3123 3122 3122 3121 3120 3119 3118 3117 3115 3114 3112 3111 3109 3107 3105 3103 3102 3100 3099 3098 3097 3095 3092 3089 3086 3083 3082 3080 3079 3078 3077 3076 3076 3074 3073 3072 3071 3069 3068 3066 3064 3063 3061 3059 3057 3056 3054 3051 3049 3047 3045 3043 3040 3036 3032 3028 3023 3016 3010 3005
3099 3097 3095 3094 3094 3094 3094 3095 3096 3098 3098 3100 3103 3105 3106 3108 3112 3115 3117 3118 3119 3120 3120 3121 3120 3120 3119 3118 3118 3116 3115 3114 3113 3112 3110 3108 3107 3105 3103 3101 3099 3098 3096 3095 3094 3092 3090 3088 3085 3082 3080 3078 3077 3076 3075 3075 3074 3073 3072 3070 3069 3068 3066 3064 3063 3061 3059 3057 3056 3054 3052 3049 3047 3045 3043 3040 3038 3035 3032 3029 3025 3020 3015 3008 3001
3094 3092 3091 3090 3090 3090 3091 3093 3093 3094 3096 3098 3101 3103 3104 3106 3109 3112 3114 3116 3117 3117 3118 3117 3117 3116 3115 3114 3114 3112 3111 3110 3109 3108 3106 3104 3102 3100 3099 3097 3095 3094 3093 3091 3090 3088 3085 3083 3081 3079 3077 3075 3075 3074 3073 3072 3071 3070 3069 3068 3066 3065 3063 3061 3060 3058 3056 3054 3052 3050 3048 3045 3043 3041 3038 3035 3033 3030 3027 3024 3021 3017 3012 3008 3000
3090 3088 3087 3087 3087 3088 3089 3090 3091 3092 3094 3097 3099 3101 3102 3104 3107 3109 3112 3113 3114 3114 3114 3113 3112 3112 3111 3110 3109 3108 3108 3106 3105 3103 3102 3100 3098 3096 3094 3093 3091 3090 3089 3087 3085 3083 3081 3079 3077 3076 3074 3073 3072 3072 3071 3070 3068 3067 3066 3065 3063 3062 3060 3058 3056 3054 3053 3051 3048 3046 3044 3041 3039 3036 3034 3031 3028 3025 3022 3019 3016 3012 3009 3005 2999
3087 3085 3083 3083 3084 3085 3086 3088 3090 3091 3092 3094 3096 3098 3099 3101 3104 3106 3108 3109 3110 3110 3110 3109 3109 3108 3107 3107 3105 3104 3103 3102 3101 3099 3098 3096 3094 3092 3090 3089 3087 3086 3084 3083 3081 3079 3077 3076 3075 3073 3071 3070 3069 3069 3068 3067 3065 3064 3063 3062 3060 3059 3057 3055 3053 3051 3049 3047 3045 3043 3040 3037 3035 3032 3029 3026 3023 3020 3017 3014 3011 3008 3004 2999 2994
3083 3081 3080 3081 3081 3082 3084 3086 3088 3089 3091 3092 3093 3095 3097 3099 3101 3103 3105 3106 3106 3106 3106 3105 3105 3104 3104 3103 3101 3100 3098 3097 3096 3095 3093 3091 3090 3088 3086 3085 3083 3082 3080 3078 3077 3075 3074 3073 3072 3070 3069 3067 3067 3066 3065 3063 3062 3061 3060 3058 3057 3055 3054 3052 3050 3048 3046 3043 3041 3039 3036 3034 3031 3027 3024 3021 3018 3015 3012 3009 3007 3004 3000 2996 2990
3080 3078 3078 3079 3080 3081 3082 3084 3086 3088 3089 3091 3092 3093 3095 3097 3098 3100 3102 3103 3103 3103 3102 3102 3101 3101 3100 3098 3097 3095 3094 3093 3092 3091 3089 3087 3086 3084 3083 3081 3079 3078 3076 3074 3073 3071 3070 3070 3069 3067 3066 3065 3064 3062 3061 3060 3059 3058 3057 3055 3054 3052 3050 3048 3046 3044 3042 3040 3037 3035 3032 3029 3027 3024 3020 3017 3014 3011 3007 3004 3002 3000 2996 2990 2984
3076 3076 3076 3077 3078 3079 3080 3082 3084 3086 3088 3089 3090 3091 3092 3093 3095 3097 3099 3099 3099 3099 3099 3098 3098 3097 3096 3094 3093 3091 3091 3090 3088 3087 3085 3083 3082 3080 3079 3077 3075 3074 3072 3071 3069 3068 3067 3066 3065 3064 3062 3061 3060 3059 3058 3057 3056 3055 3053 3052 3050 3049 3047 3044 3042 3040 3038 3036 3033 3031 3028 3025 3023 3020 3017 3014 3011 3008 3004 3001 2998 2995 2992 2986 2979
3074 3074 3074 3075 3076 3077 3078 3080 3082 3083 3085 3086 3087 3088 3089 3090 3092 3094 3095 3096 3096 3096 3095 3094 3094 3092 3091 3090 3089 3088 3087 3085 3084 3083 3081 3079 3078 3076 3075 3073 3072 3070 3069 3067 3066 3065 3064 3063 3061 3060 3059 3058 3057 3056 3055 3054 3053 3051 3050 3049 3047 3045 3043 3041 3039 3037 3034 3032 3030 3027 3025 3022 3019 3016 3013 3011 3008 3005 3002 2999 2996 2992 2989 2983 2977
3072 3072 3073 3074 3074 3075 3076 3078 3079 3081 3082 3084 3085 3086 3087 3088 3090 3091 3092 3092 3092 3092 3091 3090 3089 3088 3087 3086 3085 3083 3082 3081 3079 3078 3076 3075 3073 3072 3071 3069 3068 3067 3066 3064 3063 3062 3060 3059 3057 3056 3055 3054 3054 3053 3052 3051 3049 3048 3046 3045 3043 3042 3040 3038 3036 3034 3031 3029 3027 3024 3021 3019 3017 3014 3011 3008 3006 3003 2999 2997 2994 2991 2987 2982 2977
3070 3070 3071 3072 3072 3072 3073 3075 3077 3079 3081 3082 3083 3083 3085 3086 3087 3088 3088 3088 3088 3087 3087 3086 3085 3084 3083 3082 3080 3078 3077 3076 3074 3073 3072 3071 3070 3068 3067 3066 3065 3064 3062 3061 3059 3058 3057 3055 3054 3053 3052 3052 3051 3050 3049 3048 3046 3044 3043 3041 3040 3038 3037 3035 3033 3031 3029 3026 3024 3021 3018 3016 3014 3011 3008 3006 3003 3000 2997 2995 2992 2989 2985 2981 2976
3067 3068 3069 3070 3070 3071 3073 3075 3076 3078 3079 3080 3080 3081 3082 3083 3084 3085 3085 3084 3084 3083 3083 3082 3081 3080 3079 3077 3075 3074 3072 3071 3070 3069 3068 3067 3066 3065 3064 3063 3061 3060 3059 3057 3056 3055 3054 3053 3052 3051 3050 3050 3049 3048 3046 3045 3043 3041 3040 3038 3037 3036 3034 3032 3030 3028 3026 3024 3021 3018 3016 3013 3011 3008 3006 3003 3001 2998 2996 2993 2990 2988 2984 2980 2976
3065 3066 3067 3068 3068 3070 3071 3072 3073 3075 3076 3077 3078 3079 3080 3080 3081 3081 3081 3081 3080 3080 3079 3078 3077 3075 3074 3073 3071 3070 3069 3068 3067 3065 3064 3064 3063 3062 3060 3059 3058 3056 3055 3054 3053 3052 3051 3050 3050 3049 3048 3047 3046 3045 3043 3042 3040 3038 3037 3035 3034 3033 3031 3030 3028 3025 3023 3021 3019 3016 3014 3011 3009 3006 3003 3001 2998 2996 2994 2992 2989 2986 2984 2981 2977
3063 3064 3065 3066 3066 3067 3068 3069 3070 3072 3074 3075 3075 3076 3076 3077 3077 3077 3077 3077 3076 3075 3074 3073 3072 3071 3070 3069 3068 3067 3065 3064 3063 3062 3061 3060 3059 3058 3057 3055 3054 3053 3052 3051 3050 3050 3049 3048 3047 3047 3046 3045 3043 3042 3040 3039 3037 3036 3034 3033 3032 3030 3029 3027 3025 3023 3021 3018 3016 3014 3012 3009 3007 3004 3002 2999 2996 2994 2992 2990 2988 2985 2983 2981 2977
3062 3062 3063 3064 3065 3065 3066 3068 3069 3070 3071 3071 3072 3072 3072 3072 3073 3073 3073 3072 3072 3071 3070 3069 3068 3067 3066 3065 3064 3063 3062 3061 3059 3058 3057 3056 3055 3054 3053 3052 3051 3050 3049 3048 3048 3047 3047 3046 3045 3044 3043 3042 3040 3039 3037 3036 3035 3033 3032 3030 3029 3027 3026 3024 3022 3020 3018 3016 3014 3012 3010 3007 3005 3003 3000 2998 2996 2993 2991 2989 2987 2985 2983 2980 2977
3060 3060 3061 3062 3063 3064 3065 3066 3066 3067 3067 3068 3068 3068 3068 3068 3068 3068 3068 3068 3067 3067 3066 3065 3064 3063 3062 3062 3061 3059 3058 3057 3056 3055 3053 3052 3051 3050 3049 3049 3048 3047 3046 3046 3045 3045 3044 3043 3042 3041 3040 3039 3037 3036 3034 3033 3032 3030 3029 3028 3026 3025 3023 3021 3019 3018 3016 3014 3012 3010 3008 3006 3004 3001 2999 2997 2994 2992 2990 2988 2986 2984 2982 2980 2977
3058 3059 3060 3061 3061 3062 3062 3062 3062 3063 3064 3064 3064 3064 3064 3064 3064 3065 3064 3064 3063 3063 3062 3061 3060 3060 3059 3058 3057 3056 3054 3053 3052 3051 3050 3048 3047 3047 3046 3046 3045 3044 3043 3043 3042 3042 3041 3040 3039 3038 3037 3036 3034 3033 3032 3030 3029 3028 3026 3025 3023 3022 3020 3019 3017 3015 3014 3012 3011 3009 3007 3005 3003 3001 2999 2996 2993 2991 2989 2987 2985 2984 2982 2980 2978
3055 3056 3057 3058 3058 3058 3058 3058 3058 3059 3059 3059 3060 3060 3060 3061 3061 3061 3060 3060 3060 3060 3059 3058 3057 3056 3055 3054 3053 3052 3051 3049 3048 3047 3046 3045 3044 3043 3043 3042 3042 3041 3041 3040 3040 3039 3038 3037 3036 3035 3034 3032 3031 3030 3029 3028 3026 3025 3024 3022 3021 3020 3018 3017 3015 3014 3013 3011 3010 3008 3006 3004 3003 3001 2999 2996 2993 2991 2988 2986 2984 2983 2982 2980 2978
3051 3052 3053 3053 3053 3054 3054 3054 3054 3055 3055 3056 3056 3057 3057 3057 3057 3057 3057 3057 3057 3056 3055 3054 3053 3052 3051 3050 3049 3048 3046 3045 3044 3043 3042 3041 3040 3040 3040 3039 3039 3038 3038 3037 3036 3036 3035 3034 3033 3031 3030 3029 3028 3027 3026 3025 3024 3022 3021 3020 3019 3017 3016 3015 3014 3013 3011 3010 3009 3007 3005 3004 3002 3000 2998 2996 2994 2991 2989 2986 2985 2983 2982 2980 2979
3047 3047 3048 3048 3049 3049 3050 3050 3051 3052 3052 3053 3053 3054 3054 3054 3053 3053 3053 3054 3053 3052 3051 3050 3049 3048 3047 3046 3045 3044 3043 3042 3041 3040 3039 3038 3037 3036 3036 3036 3035 3035 3034 3034 3033 3032 3031 3030 3029 3028 3027 3026 3025 3024 3023 3022 3021 3020 3019 3018 3016 3015 3014 3013 3012 3011 3010 3009 3008 3006 3005 3003 3001 3000 2998 2996 2993 2991 2989 2987 2985 2983 2982 2980 2979
3042 3042 3043 3044 3045 3045 3046 3047 3048 3049 3049 3050 3050 3051 3051 3050 3050 3050 3050 3049 3049 3048 3047 3046 3045 3044 3043 3042 3041 3040 3040 3039 3038 3037 3036 3035 3034 3033 3033 3032 3032 3031 3031 3030 3029 3028 3027 3026 3026 3025 3024 3023 3022 3021 3020 3019 3018 3017 3017 3016 3015 3014 3012 3012 3011 3010 3009 3008 3007 3005 3004 3002 3001 2999 2997 2995 2993 2991 2989 2987 2985 2983 2981 2980 2978
3037 3038 3038 3040 3040 3041 3042 3044 3046 3046 3047 3047 3047 3047 3047 3046 3046 3046 3046 3045 3044 3044 3043 3042 3041 3040 3040 3039 3038 3037 3037 3036 3035 3034 3033 3032 3031 3030 3029 3028 3028 3027 3027 3026 3026 3025 3024 3023 3022 3021 3021 3020 3019 3018 3017 3017 3016 3015 3014 3014 3013 3012 3011 3010 3010 3009 3008 3007 3006 3004 3003 3001 3000 2998 2997 2995 2993 2991 2989 2987 2986 2983 2981 2980 2979
3034 3034 3035 3036 3037 3039 3040 3041 3042 3043 3043 3044 3043 3043 3043 3043 3042 3042 3042 3041 3040 3040 3039 3038 3037 3037 3036 3036 3035 3034 3034 3033 3032 3031 3029 3028 3027 3026 3025 3025 3024 3024 3023 3022 3022 3021 3020 3020 3019 3018 3017 3017 3016 3015 3015 3014 3014 3013 3013 3012 3011 3010 3010 3009 3009 3008 3007 3006 3005 3003 3002 3000 2999 2997 2996 2994 2992 2991 2989 2987 2986 2984 2982 2980 2979
3029 3030 3031 3032 3034 3036 3037 3037 3038 3039 3039 3040 3039 3039 3039 3039 3039 3038 3038 3037 3036 3036 3035 3035 3034 3034 3033 3032 3032 3031 3030 3030 3029 3027 3026 3025 3024 3023 3022 3021 3021 3020 3019 3018 3018 3017 3017 3016 3016 3015 3014 3014 3013 3012 3012 3012 3012 3011 3011 3010 3010 3009 3008 3008 3007 3006 3005 3004 3003 3002 3001 2999 2997 2996 2995 2993 2992 2990 2989 2987 2986 2984 2983 2981 2979
3027 3028 3029 3030 3031 3032 3033 3033 3034 3035 3036 3036 3036 3036 3036 3035 3035 3035 3034 3033 3032 3032 3031 3031 3031 3030 3030 3029 3028 3027 3027 3026 3025 3024 3022 3021 3020 3019 3019 3018 3017 3016 3015 3014 3014 3014 3014 3013 3012 3012 3011 3011 3010 3010 3010 3010 3010 3009 3009 3009 3008 3008 3007 3007 3006 3005 3004 3003 3002 3001 2999 2998 2996 2995 2994 2993 2991 2990 2989 2987 2986 2984 2983 2982 2980
3024 3025 3026 3027 3028 3029 3030 3030 3030 3031 3032 3032 3032 3032 3032 3032 3031 3031 3030 3029 3028 3028 3027 3027 3027 3027 3026 3025 3025 3024 3023 3022 3021 3020 3019 3017 3017 3016 3016 3015 3014 3013 3012 3011 3011 3011 3010 3010 3010 3009 3009 3008 3008 3008 3008 3008 3008 3008 3008 3007 3007 3006 3006 3005 3005 3004 3003 3001 3001 3000 2998 2997 2995 2994 2993 2992 2991 2989 2988 2987 2985 2984 2983 2982 2980
3020 3021 3022 3024 3026 3026 3027 3027 3027 3028 3028 3028 3028 3028 3028 3028 3027 3027 3026 3025 3024 3024 3024 3024 3024 3023 3023 3022 3021 3020 3019 3018 3017 3017 3015 3014 3014 3013 3012 3012 3011 3010 3009 3008 3008 3008 3008 3007 3007 3007 3006 3006 3006 3006 3006 3006 3006 3006 3006 3006 3006 3005 3005 3004 3003 3002 3001 3000 2999 2998 2997 2996 2995 2993 2992 2991 2990 2989 2987 2986 2985 2984 2983 2982 2981
3018 3019 3020 3022 3023 3023 3024 3024 3024 3024 3024 3024 3024 3024 3023 3023 3023 3022 3022 3021 3021 3020 3020 3020 3020 3020 3019 3019 3018 3017 3016 3015 3014 3013 3012 3011 3010 3010 3009 3008 3008 3007 3006 3005 3005 3005 3005 3005 3005 3005 3004 3004 3004 3004 3005 3005 3005 3005 3005 3005 3004 3004 3003 3003 3002 3001 3000 2999 2998 2997 2996 2995 2994 2993 2992 2991 2990 2988 2987 2986 2985 2984 2983 2982 2981
3017 3017 3018 3019 3020 3020 3020 3020 3020 3020 3020 3020 3020 3019 3019 3019 3018 3018 3018 3017 3017 3017 3017 3017 3017 3017 3016 3015 3015 3014 3013 3012 3011 3010 3009 3008 3007 3006 3006 3005 3005 3004 3003 3003 3003 3003 3003 3002 3002 3002 3002 3002 3002 3003 3003 3003 3004 3004 3004 3004 3003 3003 3002 3001 3001 3000 2999 2998 2997 2996 2995 2994 2993 2992 2991 2990 2989 2988 2987 2986 2985 2984 2983 2982 2981
3014 3014 3015 3016 3017 3017 3017 3016 3016 3016 3016 3016 3016 3016 3015 3015 3015 3015 3014 3014 3014 3014 3014 3014 3014 3013 3013 3012 3011 3011 3010 3009 3008 3007 3006 3006 3005 3004 3003 3002 3002 3001 3000 3000 3000 3000 3000 3000 3000 3000 3001 3001 3001 3001 3002 3002 3002 3002 3002 3002 3002 3002 3001 3000 3000 2999 2998 2997 2996 2996 2995 2994 2993 2992 2991 2990 2989 2988 2987 2986 2985 2984 2983 2982 2981
3011 3011 3012 3012 3013 3013 3013 3013 3012 3012 3013 3013 3012 3012 3012 3012 3012 3012 3011 3011 3011 3011 3011 3011 3010 3010 3009 3009 3008 3008 3007 3006 3005 3004 3004 3003 3002 3001 3000 2999 2999 2998 2998 2998 2998 2998 2998 2998 2998 2998 2999 2999 3000 3000 3000 3000 3001 3001 3001 3001 3001 3000 3000 2999 2999 2998 2997 2996 2996 2995 2994 2993 2992 2991 2991 2989 2988 2987 2986 2986 2985 2984 2983 2982 2981
3008 3008 3008 3008 3008 3008 3009 3009 3009 3009 3009 3009 3009 3009 3009 3009 3009 3008 3008 3008 3007 3007 3007 3006 3006 3006 3005 3005 3004 3004 3003 3003 3002 3002 3001 3000 2999 2998 2997 2997 2996 2996 2995 2995 2996 2996 2996 2996 2996 2997 2997 2998 2998 2998 2999 2999 2999 3000 3000 3000 3000 2999 2999 2998 2997 2997 2996 2996 2995 2994 2993 2992 2992 2991 2990 2989 2988 2987 2986 2986 2985 2984 2983 2983 2982